MPEC 2005-U103: 2005 UY6

The following Minor Planet Electronic Circular may be linked-to from your own Web pages, but must not otherwise be redistributed electronically.


Read MPEC 2005-U102 Read MPEC 2005-U104


M.P.E.C. 2005-U103                               Issued 2005 Oct. 31, 19:43 UT

     The Minor Planet Electronic Circulars contain information on unusual
         minor planets and routine data on comets.  They are published
   on behalf of Commission 20 of the International Astronomical Union by the
          Minor Planet Center, Smithsonian Astrophysical Observatory,
                          Cambridge, MA 02138, U.S.A.

                  Supported in part by the Brinson Foundation
                  Supported in part by the TABASGO Foundation
             Prepared using the Tamkin Foundation Computer Network

                              MPC@CFA.HARVARD.EDU
          URL http://cfa-www.harvard.edu/iau/mpc.html  ISSN 1523-6714

                                   2005 UY6

Observations:
     K05U06Y* C2005 10 29.24222 23 41 49.33 +13 02 16.8          19.9 R EU103644
     K05U06Y  C2005 10 29.30613 23 41 39.46 +13 01 19.7          20.0 R EU103644
     K05U06Y  C2005 10 29.37402 23 41 28.97 +13 00 19.0          20.2 R EU103644
     K05U06Y  C2005 10 30.82832 23 37 50.13 +12 38 37.3          20.1 R EU103621
     K05U06Y  C2005 10 30.85194 23 37 46.59 +12 38 16.9          20.1 R EU103621
     K05U06Y  C2005 10 30.87643 23 37 42.89 +12 37 54.7          20.2 R EU103621
     K05U06Y  C2005 10 31.09905 23 37 09.93 +12 34 37.2          21.1 V EU103291
     K05U06Y  C2005 10 31.10309 23 37 09.31 +12 34 33.4          21.0 V EU103291
     K05U06Y  C2005 10 31.10713 23 37 08.69 +12 34 29.9          20.9 V EU103291
     K05U06Y  C2005 10 31.11396 23 37 07.49 +12 34 22.4                 EU103682
     K05U06Y  C2005 10 31.13709 23 37 04.04 +12 34 01.6                 EU103682
     K05U06Y  C2005 10 31.16020 23 37 00.47 +12 33 41.6                 EU103682

Observer details:
291 LPL/Spacewatch II.  Observer J. V. Scotti.  1.8-m f/2.7 reflector + CCD.
621 Bergisch Gladbach.  Observer W. Bickel.  0.60-m f/5.2 reflector + CCD.
644 Palomar Mountain/NEAT.  Observers R. Bambery, M. Hicks, K. Lawrence,
    E. Helin, R. Thicksten.  1.2-m Schmidt + CCD.
682 Kanab.  Observer E. Sheridan.  0.36-m Schmidt-Cassegrain + CCD.

Orbital elements:
2005 UY6
Epoch 2005 Aug. 18.0 TT = JDT 2453600.5                 MPC
M 324.40035              (2000.0)            P               Q
n   0.21012868     Peri.  182.66186     -0.89105947     -0.44737187
a   2.8020712      Node   330.37988     +0.41924440     -0.74654995
e   0.8575765      Incl.    8.91879     +0.17391710     -0.49246480
P   4.69           H   18.7           G   0.15           U   9
Residuals in seconds of arc
051029 644  0.4-  0.4+    051030 621  0.2+  0.1+    051031 291  0.6+  0.5+
051029 644  0.3+  0.1+    051030 621  0.8+  0.0     051031 682  1.5-  0.0
051029 644  0.1-  0.1+    051031 291  0.7+  0.6+    051031 682  0.4-  0.0
051030 621  0.7-  0.8-    051031 291  0.7+  0.4+    051031 682  0.9-  0.8+

Ephemeris:
2005 UY6                 a,e,i = 2.80, 0.86, 9                   q = 0.3991
Date    TT    R. A. (2000) Decl.     Delta      r     Elong.  Phase     V
2005 10 27    23 47.54   +13 34.9    0.898    1.812   146.4    17.6    20.7
2005 11 06    23 22.97   +11 04.1    0.860    1.685   130.9    26.4    20.7
2005 11 16    23 02.14   +08 31.7    0.843    1.552   115.6    35.1    20.7
2005 11 26    22 46.25   +06 15.0    0.835    1.413   101.4    43.2    20.7
2005 12 06    22 35.28   +04 22.0    0.826    1.267    88.3    51.0    20.7
2005 12 16    22 28.17   +02 50.9    0.807    1.113    76.1    59.2    20.6
2005 12 26    22 22.90   +01 29.0    0.770    0.951    64.3    68.8    20.4

Kyle E. Smalley              (C) Copyright 2005 MPC           M.P.E.C. 2005-U103

Read MPEC 2005-U102 Read MPEC 2005-U104


Our Web policy. Index to the CBAT/MPC/ICQ pages.

MPC

Valid HTML 4.01!